TIME,DELAY(SENSOR),PRES,T(CTD),SAL,OXYGEN,RAWTEMP,T(OPTODE),TCPHASE,FLUOR,BETA(BETA700),BETA(BETA412),BETA(BETA440),CDOM,C(CSC),ED(ED411.90),ED(ED443.80),ED(ED489.40),ED(ED554.70),LU(LU412.20),LU(LU443.80),LU(LU489.40),LU(LU555.00),COMP,TILTX,TILTX(TILTY),CHECK
1372003310,5805,497.0100097656250000,18.2439002990722660,36.5527992248535160,235.5715942382812500,147.1777038574218800,18.2421092987060550,30.5984992980957030,50,98,93,81,66,10367,2146956909,2147516132,2147267154,2147449782,2147069714,2146958710,2147650121,2147127670,801,-2,8,39466
1372003425,5805,486.4200134277344000,18.3180007934570300,36.5513000488281250,240.8713989257812500,144.8403930664062500,18.3127403259277340,30.3168792724609380,50,98,93,79,65,10361,2146960859,2147514934,2147267922,2147449344,2147083584,2146956544,2147650048,2147124827,336,-2,7,53404
1372003555,5803,474.7999877929687500,18.3687992095947270,36.5502014160156250,248.3598022460937500,143.1600952148437500,18.3635196685791000,29.9516601562500000,50,98,92,80,65,10363,2146957696,2147515949,2147266166,2147451081,2147085293,2146955584,2147647862,2147128155,2119,-2,8,50966
1372003670,5805,464.7500000000000000,18.3787994384765620,36.5505981445312500,250.5957946777343800,142.8155975341797000,18.3739395141601560,29.8470897674560550,50,97,93,81,65,10366,2146957970,2147515218,2147266084,2147449408,2147084032,2146958884,2147649462,2147129664,1075,-1,8,51651
1372003799,5808,453.7399902343750000,18.4155006408691400,36.5507011413574200,253.3963928222656200,141.5148925781250000,18.4132499694824220,29.7063198089599600,50,98,94,81,63,10360,2146956004,2147514742,2147264603,2147447488,2147083501,2146957430,2147646208,2147128228,284,-2,8,59778
1372003938,5805,441.9400024414062500,18.4496994018554700,36.5558013916015600,255.3941040039062500,140.3874969482422000,18.4473304748535160,29.6043701171875000,50,98,93,80,63,10363,2146956388,2147514066,2147262153,2147448612,2147081051,2146958473,2147650569,2147128914,3371,-1,8,44511
1372004065,5807,431.3299865722656000,18.4750003814697270,36.5582008361816400,255.9494018554687500,139.6071929931640600,18.4709205627441400,29.5701007843017580,50,97,93,80,62,10362,2146958573,2147514971,2147263113,2147447378,2147084397,2146959826,2147646720,2147132571,65,-1,8,64650
1372004195,5807,420.6300048828125000,18.4909992218017580,36.5606994628906250,256.4000854492187500,139.1204986572265600,18.4856300354003900,29.5444202423095700,50,98,94,81,63,10357,2146959926,2147514669,2147262500,2147447652,2147079533,2146955840,2147644681,2147126601,2756,-1,8,44839
1372004334,5807,409.2999877929687500,18.4974002838134770,36.5605010986328100,256.4930114746094000,138.8863983154297000,18.4927101135253900,29.5371894836425780,50,101,93,80,63,10361,2146958354,2147515977,2147261988,2147447296,2147078939,2146956123,2147647186,2147129764,2648,-1,8,33275
1372004463,5807,398.8299865722656000,18.4944000244140620,36.5574989318847660,256.4348144531250000,138.9893951416015600,18.4895992279052730,29.5410804748535160,50,98,92,80,63,10357,2146958326,2147516736,2147265353,2147448960,2147078610,2146956397,2147648292,2147129161,1841,-1,8,31101
1372004602,5805,387.5599975585937500,18.5007991790771500,36.5570983886718750,256.5987854003906000,138.7550048828125000,18.4966907501220700,29.5309104919433600,50,101,93,80,62,10358,2146959222,2147510189,2147265088,2147448018,2147081700,2146951588,2147649856,2147131172,1188,-2,8,4778
1372004743,5805,375.9899902343750000,18.5023002624511720,36.5555000305175800,256.7849121093750000,138.6620025634765600,18.4994907379150400,29.5216903686523440,50,99,94,81,64,10347,2146954157,2147514121,2147264932,2147447433,2147076736,2146964379,2147654308,2147130852,317,-1,8,26491
1372004870,5806,365.5400085449219000,18.5137996673584000,36.5586013793945300,256.6849060058594000,138.3256072998047000,18.5096702575683600,29.5217399597167970,50,100,94,81,63,10357,2146958829,2147514925,2147266614,2147447040,2147081106,2146958857,2147653037,2147130285,124,-1,8,64569
1372004997,5806,354.8500061035156000,18.5179996490478500,36.5582008361816400,256.7070922851562500,138.1777038574218800,18.5141391754150400,29.5189094543457030,50,100,92,80,63,10358,2146956516,2147516269,2147264237,2147448384,2147085677,2146957467,2147655341,2147124178,3529,-1,8,32137
1372005127,5804,343.7500000000000000,18.5132007598876950,36.5505981445312500,256.9567871093750000,138.3307952880859400,18.5095100402832030,29.5099601745605470,50,99,93,81,62,10356,2146960896,2147515794,2147266752,2147450249,2147082029,2146955648,2147654198,2147129627,3360,-1,8,10233
1372005266,5804,332.0000000000000000,18.5188007354736330,36.5505981445312500,256.9949951171875000,138.1809997558593800,18.5140399932861330,29.5064105987548830,50,100,93,81,63,10358,2146959442,2147516736,2147263451,2147449435,2147085366,2146960082,2147657225,2147129618,2806,-1,8,17665
1372005395,5801,321.0400085449219000,18.5219993591308600,36.5503005981445300,257.2753906250000000,138.0711975097656200,18.5173606872558600,29.4929790496826170,50,99,92,80,63,10356,2146958253,2147512649,2147264667,2147447789,2147078217,2146961444,2147657581,2147126464,2500,-1,8,13948
1372005522,5803,310.2600097656250000,18.5400009155273440,36.5526008605957000,257.0049133300781000,137.4369964599609400,18.5365295410156250,29.4963798522949220,50,102,95,82,63,10350,2146959506,2147517366,2147262793,2147447634,2147081819,2146962340,2147664027,2147127616,2020,-1,8,56962
1372005649,5803,299.6000061035156000,18.5536994934082030,36.5531997680664060,257.0480957031250000,137.0352020263672000,18.5486907958984380,29.4891700744628900,50,102,94,81,63,10356,2146957540,2147513472,2147267986,2147450249,2147085092,2146966034,2147670381,2147133604,1397,-1,8,9107
1372005779,5805,288.7999877929687500,18.5622005462646500,36.5546989440918000,257.0716857910156000,136.7429046630859400,18.5575199127197270,29.4843597412109380,50,100,94,80,63,10356,2146957942,2147516864,2147263058,2147448320,2147083318,2146966848,2147679963,2147132571,801,-1,8,13373
1372005918,5807,277.3099975585937500,18.5727005004882800,36.5550003051757800,256.9570007324219000,136.3930969238281200,18.5680999755859380,29.4846706390380860,50,99,94,80,62,10356,2146954605,2147514934,2147265179,2147449810,2147078838,2146972224,2147693558,2147128978,439,-1,8,40261
1372006047,5804,266.7600097656250000,18.5853996276855470,36.5551986694335940,256.9814147949219000,135.9694976806640600,18.5809097290039060,29.4783191680908200,50,100,94,80,63,10354,2146958253,2147515108,2147262509,2147448877,2147085805,2146975625,2147702052,2147128749,225,-1,8,6794
1372006186,5808,255.7799987792968800,18.6270999908447270,36.5568008422851560,256.6965942382812500,134.6614990234375000,18.6204700469970700,29.4733390808105470,51,98,95,82,62,10354,2146956836,2147516013,2147264978,2147448091,2147079835,2146976905,2147724416,2147133924,433,-1,8,41566
1372006346,5809,243.1199951171875000,18.6888008117675780,36.5600013732910160,257.5474853515625000,132.5234069824218800,18.6851406097412100,29.4092903137207030,50,102,93,80,63,10356,2146959552,2147516498,2147268178,2147448649,2147083657,2146996534,2147754093,2147132397,1010,-1,8,36309
1372006459,5806,232.5200042724609400,18.7159004211425780,36.5611000061035160,259.1831054687500000,131.5144042968750000,18.7156600952148440,29.3261394500732420,51,98,93,82,64,10352,2146958802,2147517147,2147272612,2147445952,2147086884,2147009389,2147782674,2147133302,718,-1,8,17193
1372006574,5808,221.4799957275390600,18.7719993591308600,36.5626983642578100,260.2385864257812500,129.8298950195312500,18.7666206359863280,29.2595500946044920,52,101,93,81,64,10354,2146959872,2147515922,2147270354,2147446253,2147087314,2147037641,2147839652,2147137645,184,-1,8,27140
1372006692,5805,210.1900024414062500,18.8707008361816400,36.5671997070312500,257.8760070800781000,125.9871978759765600,18.8829097747802730,29.3104801177978500,54,101,94,81,64,10344,2146959122,2147516800,2147272329,2147449353,2147087689,2147067986,2147907995,2147141878,3048,-1,8,12606
1372006807,5809,199.3300018310547000,19.0610008239746100,36.5783996582031250,252.7839965820312500,120.1100006103515600,19.0608291625976560,29.4550304412841800,57,102,93,82,63,10341,2146957723,2147518345,2147275958,2147445641,2147089536,2147114880,2148002624,2147147986,2725,-1,9,33483
1372006862,5806,194.2700042724609400,19.1277008056640620,36.5816993713378900,250.4436950683593800,117.4540023803711000,19.1412696838378900,29.5234394073486330,58,101,95,82,63,10340,2146957622,2147521088,2147279241,2147445193,2147087424,2147152978,2148051876,2147146898,3170,-1,8,41565
1372006917,5807,189.2400054931640600,19.2441997528076170,36.5859985351562500,249.4235992431640600,113.6362991333007800,19.2569198608398440,29.5191707611084000,59,102,93,82,63,10343,2146958061,2147519972,2147278244,2147446171,2147087908,2147178267,2148113984,2147152585,132,-1,8,48127
1372006995,5804,182.6399993896484400,19.3764991760253900,36.5914993286132800,249.1071929931640600,109.3188018798828100,19.3877601623535160,29.4776592254638670,63,103,94,81,64,10333,2146959552,2147523510,2147282413,2147445513,2147101769,2147222491,2148200768,2147158116,457,-1,8,21894
1372007050,5805,178.3999938964843800,19.5212001800537100,36.5980987548828100,249.0012054443359400,104.6866989135742200,19.5282096862792970,29.4224891662597660,62,102,93,83,64,10336,2146958683,2147522166,2147287058,2147446061,2147107565,2147261193,2148269193,2147161654,598,-2,8,34807
1372007105,5804,174.3300018310547000,19.7087001800537100,36.6259994506835940,243.8273010253906200,98.9845581054687500,19.7011909484863280,29.5809803009033200,59,101,95,82,66,10341,2146955273,2147524480,2147285878,2147444379,2147114770,2147302811,2148334198,2147168009,1063,-1,8,51911
1372007160,5805,170.3600006103515600,19.7737007141113280,36.6361007690429700,239.0650024414062500,96.9073562622070300,19.7642307281494140,29.7730693817138670,58,104,95,81,65,10348,2146957568,2147524644,2147292361,2147443721,2147126354,2147341238,2148418194,2147171062,1000,-1,8,64941
1372007215,5802,166.4400024414062500,19.9578990936279300,36.6300010681152340,238.6826019287109400,90.2798080444336000,19.9654598236084000,29.7050590515136720,60,105,96,82,66,10343,2146954861,2147529517,2147292342,2147440850,2147132754,2147394358,2148509165,2147175533,1265,-1,8,36950
1372007270,5807,162.9400024414062500,20.2017993927001950,36.6478996276855500,236.0390930175781200,82.8635101318359400,20.1908302307128900,29.7326698303222660,60,102,93,80,66,10348,2146960301,2147526656,2147296630,2147443648,2147141933,2147447515,2148590180,2147180790,1940,-1,9,64798
1372007353,5804,158.3699951171875000,20.5235996246337900,36.6604003906250000,235.3415985107422000,73.0432968139648400,20.4895496368408200,29.6388301849365230,62,102,93,83,66,10344,2146958683,2147532790,2147299739,2147442093,2147156763,2147540041,2148741622,2147191396,2562,-2,9,27708
1372007456,5803,154.9600067138672000,20.5914001464843750,36.6679000854492200,237.4219970703125000,70.0033721923828100,20.5820999145507800,29.5024108886718750,59,100,94,80,65,10346,2146959670,2147533888,2147301851,2147441453,2147179638,2147607817,2148839158,2147197961,2424,-1,9,40729
1372007571,5806,150.9100036621093800,20.6047992706298830,36.6699981689453100,238.1078033447265600,69.4359130859375000,20.5993804931640620,29.4630794525146500,57,101,94,82,65,10348,2146961088,2147536173,2147306514,2147438912,2147200320,2147700900,2148985289,2147206683,2177,-2,9,17589
1372007674,5806,146.4499969482422000,20.7873001098632800,36.6726989746093750,238.6806945800781200,62.8598899841308600,20.7997303009033200,29.3522796630859380,54,99,94,81,64,10350,2146961901,2147540242,2147312320,2147441161,2147232228,2147846061,2149220489,2147224274,2266,-1,9,1936
1372007753,5809,142.7200012207031200,20.9134998321533200,36.6838989257812500,237.4508972167968800,59.5573806762695300,20.9004096984863280,29.3669109344482420,54,101,92,82,64,10348,2146960804,2147543634,2147320749,2147439616,2147267510,2147979465,2149423716,2147233179,2665,-2,9,32275
1372007844,5800,138.8500061035156200,21.0188007354736330,36.6786994934082000,235.4174957275390600,55.6113700866699200,21.0207691192626950,29.4114494323730470,57,99,93,81,65,10344,2146959771,2147548443,2147329709,2147438784,2147308050,2148150720,2149693056,2147251483,2489,-1,9,28534
1372007949,5806,134.7500000000000000,21.0956001281738280,36.6783981323242200,235.9346923828125000,53.2106094360351560,21.0940399169921880,29.3565597534179700,61,101,93,81,64,10347,2146963913,2147553362,2147335140,2147438299,2147347675,2148289005,2149902482,2147261888,2376,-2,8,62838
1372008052,5808,130.8800048828125000,21.3624000549316400,36.6966018676757800,230.1685943603515600,45.1392211914062500,21.3405303955078120,29.5258197784423830,54,101,93,81,66,10352,2146961746,2147558601,2147345462,2147435684,2147403657,2148461988,2150174436,2147279716,1717,-1,9,1549
1372008179,5805,127.1100006103515600,21.4806995391845700,36.6786994934082000,227.2543029785156200,40.8542098999023440,21.4715099334716800,29.6117706298828120,56,98,93,82,66,10343,2146963008,2147563282,2147352667,2147435017,2147443090,2148584548,2150346112,2147293933,2184,-1,8,10278
1372008310,5805,122.9700012207031200,21.6595993041992200,36.6580009460449200,232.0944976806640600,34.9924888610839840,21.6508293151855470,29.3045005798339840,54,98,94,82,64,10352,2146964096,2147574016,2147363766,2147436562,2147532882,2148874797,2150768594,2147318381,2349,-1,8,10187
1372008413,5804,118.8300018310546900,21.6814994812011720,36.6450996398925800,233.9730072021484400,34.1410903930664060,21.6768894195556640,29.2050991058349600,53,99,93,81,65,10353,2146966290,2147578752,2147382939,2147437440,2147630006,2149132004,2151133668,2147344850,1370,-2,9,39701
1372008516,5805,114.6800003051757800,21.7483997344970700,36.6152000427246100,236.1723022460937500,32.1290016174316400,21.7384891510009770,29.0769996643066400,54,97,92,81,63,10350,2146971501,2147585024,2147400859,2147436160,2147761408,2149511067,2151661906,2147382473,806,-1,8,52515
1372008612,5806,110.3099975585937500,21.8994007110595700,36.6199989318847660,236.7516937255859400,27.0764904022216800,21.8932590484619140,28.9862594604492200,53,96,93,80,64,10352,2146970889,2147595273,2147406637,2147433051,2147852086,2149689993,2151905005,2147398912,1523,-2,9,52033
1372008691,5808,106.2900009155273400,22.0445003509521500,36.6178016662597660,236.3204040527343800,22.4685096740722660,22.0345306396484380,28.9479408264160160,55,97,93,82,63,10349,2146975204,2147612708,2147430985,2147437083,2148023533,2150125814,2152534317,2147446902,1813,-2,9,5822
1372008770,5807,102.7300033569336000,22.2255001068115230,36.6250991821289060,234.4174957275390600,16.8227596282959000,22.2077598571777340,28.9647998809814450,56,100,94,80,64,10350,2146980187,2147627520,2147464841,2147437257,2148264713,2150819666,2153576768,2147518226,2028,-1,8,25120
1372008875,5805,98.5500030517578100,22.3171005249023440,36.6273994445800800,233.2254943847656200,13.6629495620727540,22.3047904968261720,28.9804496765136720,59,100,92,81,64,10348,2146984384,2147643254,2147489033,2147438409,2148477796,2151280027,2154224475,2147573705,1253,-1,9,53034
1372008930,5803,96.4599990844726600,22.3474998474121100,36.6264991760253900,232.9824981689453000,12.5257501602172850,22.3397197723388670,28.9776401519775400,58,102,93,80,64,10342,2146986889,2147645421,2147490989,2147437513,2148537782,2151311232,2154224320,2147578916,1084,-2,9,27059
1372008985,5806,94.3899993896484400,22.4701995849609380,36.6208000183105500,233.1540069580078000,9.4095106124877930,22.4354801177978500,28.9302406311035160,60,103,92,80,64,10334,2146989339,2147655076,2147517769,2147438272,2148736941,2151800274,2154929938,2147636534,726,-1,8,51355
1372009040,5805,92.5599975585937500,22.5540008544921880,36.6153984069824200,235.1537017822265600,6.8112640380859375,22.5153694152832030,28.8042697906494140,72,105,94,82,63,10329,2146990573,2147665792,2147530413,2147442349,2148847990,2152007844,2155216210,2147665005,756,-1,9,39750
1372009095,5803,91.0100021362304700,22.6270008087158200,36.6035003662109400,237.5650024414062500,4.2156720161437990,22.5952091217041000,28.6608390808105470,73,104,95,82,63,10327,2146996352,2147673408,2147546496,2147442642,2148989403,2152286601,2155625691,2147708964,1067,-1,8,8408
1372009162,5808,89.4000015258789000,22.7101993560791000,36.6036987304687500,240.9420928955078000,0.9900658726692200,22.6944808959960940,28.4676208496093750,77,107,95,81,64,10317,2146994340,2147678418,2147560420,2147444251,2149120987,2152557467,2156033526,2147745453,455,-2,9,17525
1372009257,5806,86.7200012207031200,22.7987995147705080,36.6012001037597660,241.9040069580078000,-2.4765911102294920,22.8012409210205080,28.3812904357910160,84,119,95,83,64,10305,2147003364,2147702720,2147598345,2147443401,2149524873,2153402496,2157292489,2147866651,3288,-1,9,264
1372009312,5807,84.5500030517578100,22.8864994049072270,36.5931015014648440,243.1824035644531200,-4.8977141380310060,22.8758392333984380,28.2941894531250000,80,109,95,83,64,10299,2147011538,2147722157,2147633334,2147449115,2149821842,2153968868,2158125156,2147956800,453,-1,8,30983
1372009367,5808,82.6100006103515600,23.1611003875732420,36.5699005126953100,242.9777069091797000,-13.0991201400756840,23.1287994384765620,28.2013797760009770,86,109,95,83,64,10307,2147011547,2147722998,2147641206,2147448932,2149918710,2153965165,2158092580,2147982793,927,-1,9,20456
1372009422,5806,81.3600006103515600,23.3470001220703120,36.5588989257812500,243.6927947998047000,-19.0808200836181640,23.3135604858398440,28.0956592559814450,88,111,94,83,63,10301,2147015177,2147730706,2147652516,2147449033,2150097344,2154281609,2158550555,2148031652,1303,-2,9,4713
1372009601,5809,79.2600021362304700,23.4724998474121100,36.5526008605957000,242.1331939697265600,-23.8439998626709000,23.4608402252197270,28.1056308746337900,94,111,95,82,63,10287,2146981961,2147610596,2147430582,2147430336,2148476900,2150115684,2152149147,2147507264,1026,-2,9,61711
1372009680,5806,76.9400024414062500,23.5930004119873050,36.5620994567871100,239.4598999023437500,-27.4763698577880860,23.5732498168945300,28.1798191070556640,103,113,95,82,64,10272,2147017033,2147723483,2147649517,2147451510,2150197897,2153837046,2157628818,2148048384,710,-2,8,23398
1372009747,5806,75.0000000000000000,23.8379001617431640,36.5941009521484400,238.8206939697265600,-35.0222892761230500,23.8070392608642580,28.1150093078613280,111,116,96,85,64,10264,2147019309,2147729801,2147635410,2147451995,2150422756,2154074715,2157966180,2148104740,798,-2,9,48328
1372009854,5807,72.6399993896484400,24.1511001586914060,36.6102981567382800,224.0317993164062500,-45.7183914184570300,24.1390800476074220,28.6706600189209000,133,127,97,86,66,10236,2146990765,2147613888,2147432923,2147433261,2148713152,2150163410,2152010432,2147541833,504,-1,8,64769
1372009909,5806,71.3700027465820300,24.1693000793457030,36.6068000793457000,222.1840972900390600,-46.9209785461425800,24.1764602661132800,28.7451591491699220,137,128,95,85,66,10227,2147003273,2147645321,2147488182,2147436992,2149269760,2151249590,2153630966,2147709805,545,-1,8,10710
1372010000,5805,69.2200012207031200,24.3701000213623050,36.5988998413085940,220.0386047363281200,-52.5778388977050800,24.3524303436279300,28.7793693542480470,153,125,96,84,66,10194,2147072027,2147851200,2147850898,2147474084,2152809536,2157797942,2163107693,2148853769,3324,-1,9,40022
1372010091,5808,67.5100021362304700,24.4885005950927730,36.5779991149902340,221.6529998779297000,-56.4815597534179700,24.4740009307861330,28.6511402130126950,166,131,97,85,65,10166,2147028187,2147717010,2147612096,2147448082,2150743597,2153475053,2156582985,2148143826,2854,-2,9,60174
1372010198,5807,64.8600006103515600,24.7901000976562500,36.5335006713867200,221.0065002441406200,-65.9174194335937500,24.7682895660400400,28.5644493103027340,199,136,100,86,65,10105,2147127177,2147979931,2148072996,2147503405,2155550793,2161585691,2168325385,2149735689,1783,-2,9,61848
1372010253,5802,63.3600006103515600,24.9274005889892580,36.5172004699707000,224.6237030029297000,-69.9929504394531200,24.8955993652343750,28.3385601043701170,205,142,100,87,65,10081,2147155849,2148048612,2148204178,2147527460,2156748836,2163265947,2170517970,2150129453,1506,-2,9,59253
1372010480,5805,61.1399993896484400,25.0533008575439450,36.4912986755371100,241.6022033691406200,-74.9869537353515600,25.0517692565917970,27.4996299743652340,145,141,100,88,65,10107,2147066514,2147776283,2147695542,2147463195,2152043236,2154520521,2157393033,2148434779,922,-1,9,59486
1372010547,5804,58.9300003051757800,25.1058998107910160,36.4812011718750000,236.8132934570312500,-76.6695785522461000,25.1044406890869140,27.6914100646972660,127,137,99,88,65,10129,2147145856,2147982820,2148015186,2147504064,2155587885,2159721225,2164008438,2149421869,1135,-2,9,64621
1372010602,5804,57.0299987792968750,25.1573009490966800,36.4720993041992200,236.0413055419922000,-78.3156204223632800,25.1559696197509770,27.7060394287109380,119,135,99,88,64,10145,2147342436,2148453330,2148765083,2147610038,2164528374,2173060626,2180952338,2152130322,1311,-1,9,33395
1372010657,5804,55.1500015258789060,25.2129001617431640,36.4533004760742200,243.4385070800781200,-80.0794830322265600,25.2112197875976560,27.3573398590087900,100,136,99,87,64,10159,2147205741,2148092443,2148127844,2147523556,2158275236,2162828781,2166579401,2149982857,1217,-2,9,45512
1372010840,5808,50.9399986267089840,25.2702007293701170,36.4285011291503900,249.9207000732422000,-82.1423263549804700,25.2758693695068360,27.0554008483886720,85,129,101,87,62,10169,2147493988,2148723264,2148963218,2147658569,2170007908,2178745508,2183867949,2152851949,963,-1,9,51647
1372010874,5806,49.5999984741210940,25.3003997802734380,36.4095001220703100,245.3518066406250000,-83.3389205932617200,25.3133792877197270,27.2350807189941400,79,126,99,87,65,10177,2147259419,2148169133,2148109641,2147517723,2159836105,2163649124,2165208320,2149791186,912,-1,9,46585
1372010920,5807,47.6800003051757800,25.5195999145507800,36.2616996765136700,246.7937011718750000,-89.1024932861328100,25.4942302703857420,27.1033191680908200,69,128,98,86,61,10187,2147387638,2148447341,2148452635,2147566811,2164916032,2170221540,2171827273,2150851382,960,-2,9,53926
1372011188,5808,45.7000007629394500,25.5669994354248050,36.2268981933593750,324.5765075683594000,-91.8059692382812500,25.5791492462158200,24.2525806427001950,66,128,99,88,63,10202,2147705554,2149124059,2149236644,2147669906,2177681910,2186366592,2187527232,2153206829,1020,-2,8,11848
1372011247,5805,43.8300018310546900,25.5734996795654300,36.2210006713867200,294.8469848632812500,-91.9785690307617200,25.5845794677734380,25.2260093688964840,65,127,97,86,60,10200,2147507977,2148623542,2148485586,2147565421,2170542025,2175512438,2174322916,2151162596,697,-1,9,37472
1372011306,5806,41.7500000000000000,25.8230991363525400,36.1777000427246100,279.4775085449219000,-98.7841262817382800,25.7986202239990230,25.6948509216308600,64,125,100,87,61,10199,2147567268,2148709988,2148535771,2147579410,2172623113,2177109138,2174604187,2151284306,1001,-2,9,36719
1372011391,5803,39.8300018310546900,25.9127998352050780,36.1803016662597660,289.0461120605469000,-103.0860977172851600,25.9341201782226560,25.2992401123046880,64,127,98,86,59,10198,2148898907,2151457024,2151690880,2148134299,2230554368,2250246912,2245272585,2163661147,814,-2,9,21398
1372011504,5808,37.8300018310546900,26.1618995666503900,36.1908988952636700,315.7322998046875000,-110.5805969238281200,26.1705398559570300,24.3158397674560550,61,126,101,88,60,10205,2148330240,2150155264,2149968292,2147798253,2207338166,2217904694,2210280100,2157246180,544,-2,8,54022
1372011615,5809,35.9500007629394500,26.6149005889892580,36.1327018737793000,289.5954895019531000,-123.5640029907226600,26.5812397003173830,25.0406303405761720,61,125,98,86,58,10213,2148334281,2150109010,2149772260,2147713206,2206835830,2215871734,2206513206,2156806738,2501,-1,9,27222